Powrót do katalogu

MIDAS 5 DEB

LostPO
NORAD 18603·DEBRIS·🇺🇸 United States

Wystrzelony Apr 9, 1962 z Vandenberg Space Force Base

Loading…

Następne Przeloty (najbliższe 24 godziny)

TLE

NieaktualneSource: Space-Track

Epoka: May 31, 2026, 22:36 UTC

1 18603U 62010G   26151.94233968  .00000004  00000-0 -32190-3 0  9999
2 18603  86.6848 328.5198 0291243  81.4765  73.9026  9.41013414377010

Śledź MIDAS 5 DEB w czasie rzeczywistym z AllMySat

Download on the App Store